TimeEST,TemperatureF,Dew PointF,Humidity,Sea Level PressureIn,VisibilityMPH,Wind Direction,Wind SpeedMPH,Gust SpeedMPH,PrecipitationIn,Events,Conditions,WindDirDegrees,DateUTC
12:56 AM,37.0,25.0,62,29.59,10.0,WSW,18.4,24.2,N/A,,Clear,250,2014-01-20 05:56:00
1:56 AM,37.0,24.1,59,29.61,10.0,WSW,15.0,25.3,N/A,,Clear,250,2014-01-20 06:56:00
2:56 AM,36.0,23.0,59,29.62,10.0,WSW,11.5,-,N/A,,Clear,250,2014-01-20 07:56:00
3:56 AM,35.1,25.0,67,29.61,10.0,SW,9.2,-,N/A,,Clear,220,2014-01-20 08:56:00
4:56 AM,37.0,25.0,62,29.61,10.0,WSW,12.7,-,N/A,,Clear,250,2014-01-20 09:56:00
5:56 AM,36.0,24.1,62,29.61,10.0,SW,15.0,-,N/A,,Clear,230,2014-01-20 10:56:00
6:56 AM,36.0,25.0,64,29.60,10.0,WSW,11.5,-,N/A,,Scattered Clouds,250,2014-01-20 11:56:00
7:56 AM,37.9,26.1,62,29.60,10.0,SW,12.7,-,N/A,,Clear,230,2014-01-20 12:56:00
8:56 AM,42.1,25.0,51,29.61,10.0,WSW,20.7,29.9,N/A,,Clear,250,2014-01-20 13:56:00
9:56 AM,43.0,25.0,49,29.61,10.0,SW,19.6,-,N/A,,Clear,230,2014-01-20 14:56:00
10:56 AM,44.1,25.0,47,29.58,10.0,West,21.9,33.4,N/A,,Clear,260,2014-01-20 15:56:00
11:56 AM,44.1,26.1,49,29.55,10.0,WSW,17.3,28.8,N/A,,Overcast,250,2014-01-20 16:56:00
12:56 PM,45.0,25.0,46,29.54,10.0,WSW,13.8,24.2,N/A,,Overcast,250,2014-01-20 17:56:00
1:56 PM,44.1,25.0,47,29.52,10.0,WSW,19.6,27.6,N/A,,Overcast,240,2014-01-20 18:56:00
2:56 PM,43.0,26.1,51,29.52,10.0,WSW,12.7,-,N/A,,Overcast,240,2014-01-20 19:56:00
3:56 PM,42.1,28.0,58,29.55,10.0,SW,8.1,-,N/A,,Overcast,230,2014-01-20 20:56:00
4:56 PM,41.0,28.9,62,29.58,10.0,WSW,15.0,-,N/A,,Overcast,240,2014-01-20 21:56:00
5:56 PM,39.9,28.0,63,29.61,10.0,WSW,9.2,-,N/A,,Mostly Cloudy,240,2014-01-20 22:56:00
6:56 PM,36.0,28.0,73,29.65,10.0,WSW,6.9,-,N/A,,Clear,250,2014-01-20 23:56:00
7:56 PM,35.1,28.9,78,29.69,10.0,SW,4.6,-,N/A,,Partly Cloudy,230,2014-01-21 00:56:00
8:56 PM,37.9,27.0,65,29.73,10.0,WNW,5.8,-,N/A,,Overcast,300,2014-01-21 01:56:00
9:56 PM,37.0,23.0,57,29.75,10.0,NNW,9.2,18.4,N/A,,Partly Cloudy,330,2014-01-21 02:56:00
10:56 PM,35.1,24.1,64,29.78,10.0,NW,5.8,-,N/A,,Clear,320,2014-01-21 03:56:00
11:56 PM,34.0,19.9,56,29.82,10.0,NNW,9.2,-,N/A,,Clear,330,2014-01-21 04:56:00